This demonstration page uses our WeatherBlox Daily Observations layout. Learn more.

Left ArrowRight Arrow

39.92423, -83.80882

Hourly Observations for November 29, 2018

Temp ( °F °C ) Dew Point ( °F °C ) Humidity (%) Winds ( mph kmh ) Pressure ( in mb ) Visibility ( mi km ) Precip ( " mm )
12:56 am 00:56 Cloudy 23 -5 20 -6.7 88 88 SSE 6 9 30.13 1020 10 16.0934 N/A
1:56 am 01:56 Cloudy 23 -5 21 -6.1 92 92 SSE 5 7 30.12 1020 10 16.0934 N/A
2:56 am 02:56 Cloudy 25 -3.9 22 -5.6 88 88 SSE 3 6 30.14 1021 10 16.0934 N/A
3:56 am 03:56 Cloudy 25 -3.9 23 -5 92 92 SE 7 11 30.12 1020 10 16.0934 N/A
4:56 am 04:56 Cloudy 26 -3.3 23 -5 88 88 SE 6 9 30.11 1020 10 16.0934 N/A
5:56 am 05:56 Cloudy 26 -3.3 23 -5 88 88 SE 10 17 30.09 1019 10 16.0934 N/A
6:56 am 06:56 Partly Cloudy 25 -3.9 23 -5 92 92 ESE 10 17 30.1 1019 10 16.0934 N/A
7:56 am 07:56 Cloudy 26 -3.3 23 -5 88 88 SE 12 19 30.1 1019 10 16.0934 N/A
8:56 am 08:56 Cloudy with Light Snow 26 -3.3 23 -5 88 88 ESE 9 15 30.1 1019 9 14.48406 N/A
9:17 am 09:17 Cloudy with Mist and Fog 27 -3 25 -4 93 93 ESE 13 20 30.12 1020 0.75 1.207005 N/A
9:27 am 09:27 Cloudy with Light Snow 27 -3 25 -4 93 93 ESE 16 26 30.09 1019 4 6.43736 N/A
9:56 am 09:56 Cloudy 27 -2.8 24 -4.4 89 89 ESE 13 20 30.09 1019 10 16.0934 N/A
10:56 am 10:56 Cloudy 28 -2.2 25 -3.9 88 88 ESE 15 24 30.08 1019 9 14.48406 N/A
11:56 am 11:56 Cloudy 29 -1.7 25 -3.9 85 85 SE 15 24 30.04 1017 10 16.0934 N/A
12:56 pm 12:56 Cloudy 30 -1.1 25 -3.9 82 82 SE 15 24 29.99 1016 10 16.0934 N/A
1:35 pm 13:35 Cloudy 30 -1 25 -4 80 80 SE 13 20 30 1016 10 16.0934 N/A
1:56 pm 13:56 Cloudy 31 -0.6 26 -3.3 82 82 SE 12 19 29.98 1015 10 16.0934 N/A
3:56 pm 15:56 Cloudy 32 undefined 29 -1.7 88 88 SSE 12 19 29.97 1015 10 16.0934 N/A
4:56 pm 16:56 Cloudy 32 undefined 29 -1.7 88 88 SE 10 17 29.97 1015 10 16.0934 N/A
5:52 pm 17:52 Cloudy 32 undefined 30 -1 93 93 SSE 8 13 30 1016 9 14.48406 N/A
5:56 pm 17:56 Cloudy 32 undefined 31 -0.6 96 96 SSE 8 13 29.98 1015 7 11.26538 N/A
6:41 pm 18:41 Cloudy with Mist and Fog 32 undefined 32 undefined 100 100 SSE 9 15 30 1016 3 4.82802 N/A
6:56 pm 18:56 Cloudy with Mist and Fog 32 undefined 32 undefined 100 100 SE 9 15 29.97 1015 2.5 4.02335 N/A
7:42 pm 19:42 Cloudy with Light Freezing Rain 32 undefined 32 undefined 100 100 SE 7 11 30 1016 2 3.21868 N/A
7:56 pm 19:56 Cloudy with Light Freezing Rain 32 undefined 32 undefined 100 100 SSE 7 11 29.97 1015 2 3.21868 N/A
8:08 pm 20:08 Cloudy with Light Wintry Mix 32 undefined 32 undefined 100 100 SSE 6 9 30 1016 1.75 2.816345 N/A
8:37 pm 20:37 Cloudy with Light Wintry Mix 34 1 34 1 100 100 SSE 3 6 29.97 1015 1.25 2.011675 N/A
8:56 pm 20:56 Cloudy with Mist and Fog 33 0.6 33 0.6 100 100 SSE 5 7 29.96 1015 1.5 2.41401 N/A
9:24 pm 21:24 Cloudy with Mist and Fog 34 1 34 1 100 100 SSE 3 6 30 1016 1 1.60934 N/A
9:38 pm 21:38 Cloudy with Mist and Fog 34 1 34 1 100 100 SE 3 6 29.97 1015 0.75 1.207005 N/A
9:56 pm 21:56 Cloudy with Fog 33 0.6 33 0.6 100 100 ESE 3 6 29.96 1015 0.5 0.80467 N/A
10:56 pm 22:56 Cloudy with Light Rain 33 0.6 33 0.6 100 100 N N/A 29.96 1015 0.5 0.80467 N/A
11:08 pm 23:08 Cloudy with Light Rain 34 1 34 1 100 100 S 5 7 29.97 1015 0.75 1.207005 N/A
11:17 pm 23:17 Cloudy with Fog 34 1 34 1 100 100 S 3 6 29.97 1015 0.5 0.80467 N/A
11:56 pm 23:56 Cloudy with Fog 33 0.6 33 0.6 100 100 SSE 3 6 29.96 1015 0.5 0.80467 N/A

Powered by AerisWeather